Погода в Сиддхартханагаре

Непал     27°31′07″N   83°26′54″E
темп.,
°C
ветер,
м/с
пор.,
м/с
влажн.,
%
обл.,
%
осадки,
мм/ч
давл.,
гПа
погр.,
м
13 мая, чт
чт1323:45+24в1379100 4.1 1005217
02:45+22зюз3384100 1.5 1006207
05:45+22всв3681100 2.4 1004246
08:45+27вюв465762 0.0 1007681
11:45+31вюв534140 0.1 10062082
14:45+30в4442100 0.1 10031374
17:45+29св454611 0.3 1002597
20:45+25св35600 0.1 1003103
14 мая, пт
пт1423:45+24всв12621 0.3 100418
02:45+23ссз3369100 1.0 100462
05:45+22в237095 1.5 100459
08:45+28юв33465 0.1 1006692
11:45+33юв23360 0.1 10041855
14:45+36зюз56292 0.0 10002748
17:45+31ссв544118 0.0 1000408
20:45+27св36540 0.0 1001130
15 мая, сб
сб1523:45+26св12530 0.0 100220
02:45+25ссв225334 0.0 100220
05:45+25в12555 0.0 100323
08:45+32в34370 0.0 1005701
11:45+36юв33280 0.0 10032457
14:45+38юз342116 0.0 10003273
17:45+38з35210 0.0 9992931
20:45+32св34325 0.0 100150
16 мая, вс
вс1623:45+30св344133 0.0 100257
02:45+28св344341 0.0 100162
05:45+27в244810 0.0 100366
08:45+34вюв4536100 0.0 1005857
11:45+38юв4326100 0.0 10032297
14:45+40ююз452199 0.0 10003353
17:45+40юз3420100 0.0 9992001
20:45+34св332910 0.0 100133
17 мая, пн
пн1723:45+31всв343839 0.0 100169
02:45+29св223975 0.0 100125
05:45+28св344529 0.0 100394
08:45+35в443526 0.0 1004908
11:45+39ююв342682 0.0 10032553
14:45+42юз351991 0.0 9993332
17:45+42зюз351723 0.0 9972812
20:45+35всв11245 0.0 99914